Location: Roanoke
(37.2710°N, 79.9420°W)
Time: 20:41:42
(UTC-05:00)

Courier 1B Rocket - Pass Details

Date: 22 November 2019
Orbit: 920 x 1202 km, 28.2° (Epoch: 05 December)

Event Time Altitude Azimuth Distance (km) Brightness Sun altitude
Rises 15:27:33 0° 251° (WSW) 3,737 9.4 15.5°
Reaches altitude 10° 15:30:19 10° 245° (WSW) 2,829 9.3 15.1°
Maximum altitude 15:36:44 41° 177° (S) 1,530 6.7 14.1°
Drops below altitude 10° 15:43:35 10° 110° (ESE) 3,022 7.3 13.0°
Sets 15:46:38 0° 104° (ESE) 4,018 7.8 12.6°
